Погода в Панфилове

Россия / Волгоградская область     50°24′17″N   42°53′34″E
темп.,
°C
ветер,
м/с
пор.,
м/с
влажн.,
%
обл.,
%
осадки,
мм/ч
давл.,
гПа
погр.,
м
17 августа, ср
ср1700:00+26в71331100 0.0 1014330
03:00+26в81428100 0.0 1014327
06:00+25в81628100 0.0 1013445
09:00+26всв71330100 0.0 1013438
12:00+33в111519100 0.0 10121970
15:00+34в12151935 0.0 10112375
18:00+31в10152337 0.0 10101070
21:00+27всв1120296 0.1 1010810
18 августа, чт
чт1800:00+24всв9193887 0.4 1010609
03:00+24в8173340 0.5 1009475
06:00+25в6122996 0.0 1009499
09:00+26в51034100 0.3 1010671
12:00+27в5744100 1.1 1010832
15:00+30в7838100 2.2 10091383
18:00+24всв51262100 0.6 1010468
21:00+22всв51158100 1.1 1011299
19 августа, пт
пт1900:00+25всв71337100 0.5 1011516
03:00+26в101635100 0.5 1010682
06:00+24в111741100 0.0 1012769
09:00+24вюв91542100 0.0 10141320
12:00+24вюв111746100 0.1 10151494
15:00+28в101731100 0.4 10141894
18:00+24вюв122046100 0.0 10171383
21:00+23вюв112045100 0.0 10191199
20 августа, сб
сб2000:00+23вюв101844100 0.0 1020934
03:00+22вюв91644100 0.0 1021774
06:00+21вюв8162690 0.0 1022606
09:00+25вюв101320100 0.0 1023886
12:00+24вюв101221100 0.0 1023533
15:00+27вюв91221100 0.0 1022920
18:00+25вюв91417100 0.0 1021817
21:00+24вюв81515100 0.0 1022633
21 августа, вс
вс2100:00+21вюв61419100 0.0 1023444
03:00+18в51423100 0.0 1023347
06:00+18в61425100 0.0 1023358
09:00+24вюв81118100 0.0 1022848
12:00+28вюв81013100 0.0 10211792
15:00+30вюв8912100 0.0 10202385
18:00+28в61015100 0.0 1019518
21:00+23в51325100 0.0 1020268